OBJECT B (46531 NORAD) Tracking and Keplerian Element Data

This shows tracking and keplerian element data for the satellite.

Feedback or suggestion? Click here.




ElementValue
Catalog46531
NameOBJECT B
Epoch Orbit56
Epoch Day281.08305999
Epoch Year2020
RAAN152.7136
Inclination51.6062
Eccentricity0.0009694
Argument of Perigee67.5119
Mean Anonmoly292.6845
Mean Motion16.50599947
Decay Rate0.22790894
L11 46531U 20069B 20281.08305999 .22790894 12756-4 21687-3 0 9995
L22 46531 51.6062 152.7136 0009694 67.5119 292.6845 16.50599947 565

Live tracking and technical data element details for OBJECT B (NORAD 46531). OBJECT B can be tracked NOW for your location showing map with azimuth and elevation plus other details from your city location.

Track the satellite on the map from your city or location and see movement details for azimuth, elevation, latitude, longitude, range, height, and movement on the map or in text.







IsCatalogInMostPopularTable: catalog: 46531, numindb: 9
Update: records affected: 1



GetName: 46531 OBJECT B

Hit Count: updated at: Sat, 31 Oct 2020 09:32:26 GMT